Погода в Кызыл-Октябре

Россия / Карачаево-Черкесская Республика     43°49′26″N   41°47′11″E
темп.,
°C
ветер,
м/с
пор.,
м/с
влажн.,
%
обл.,
%
осадки,
мм/ч
давл.,
гПа
погр.,
м
17 мая, пн
пн1700:00+13ю336198 0.0 100740
03:00+13ю33625 0.0 100646
06:00+14ю345990 0.0 100752
09:00+21с214496 0.0 1006501
12:00+21с435286 0.0 1007867
15:00+17с3481100 2.1 1008783
18:00+14ссз2497100 3.6 1009327
21:00+12ссз2410090 11.4 1011285
18 мая, вт
вт1800:00+11ю1197100 1.3 101136
03:00+11сз1197100 1.9 101024
06:00+11зюз1196100 1.5 101157
09:00+10св1198100 7.1 1012159
12:00+13всв1278100 2.1 1011518
15:00+16с327080 3.6 1011901
18:00+13с238857 1.5 1012301
21:00+10ю119512 1.8 101416
19 мая, ср
ср1900:00+7ю338549 0.0 101441
03:00+6ю3278100 0.0 101334
06:00+9ю2371100 0.0 101256
09:00+11св228040 0.6 1014377
12:00+14сз446945 0.4 1013925
15:00+15ссз446629 1.6 10151049
18:00+14с22740 0.2 1015383
21:00+7ююз22850 0.2 101924
20 мая, чт
чт2000:00+4ю32600 0.0 102132
03:00+4ю32480 0.0 102134
06:00+6ю22490 0.0 102138
09:00+14ссв22375 0.0 1018683
12:00+17с32471 0.0 10171070
15:00+18с325614 0.0 10161213
18:00+16с227415 0.0 1017539
21:00+10ю22890 0.0 101826
21 мая, пт
пт2100:00+9ю32470 0.0 101829
03:00+9ю33420 0.0 101734
06:00+11ю22505 0.0 101732
09:00+22ссв11295 0.0 1014378
12:00+24с22310 0.0 1014809
15:00+24с223942 0.0 1014859
18:00+21ссв016562 0.0 101433
21:00+15ю33710 0.0 101540